Flag for U.S.A. Weather past 2 weeks in Provo, Utah, U.S.A.

Now
43 °F

Clear.


Feels Like: 39 °F
Forecast: 39 / 71 °F
Wind: 7 mph from Southeast

Location: Provo Municipal

Current Time: Mar 30, 2015 at 4:43:40 AM

Latest Report: Mar 30, 2015 at 4:15 AM


Visibility: 10 mi

Pressure: 30.21 "Hg

Humidity: 53%

Dew point: 27 °F

Location of ProvoLocation

Historic Weather in Provo — Graph

°F

Provo temperature yesterday

Maximum temperature yesterday: 64 °F (at 4:59 PM)
Minimum temperature yesterday: 37 °F (at 7:53 AM)
Average temperature yesterday: 50 °F

Past Weeks' High & Low Weather Summary

 TemperatureHumidityPressure
High73 °F (Mar 28, 2:47 PM)100% (Mar 17, 7:52 PM)30.45 "Hg (Mar 17, 7:52 PM)
Low28 °F (Mar 26, 6:35 AM)15% (Mar 20, 4:59 PM)29.92 "Hg (Mar 17, 6:48 PM)
Average48 °F52%30.16 "Hg
* Reported Mar 15 3:15 AM — Mar 30 3:35 AM, Provo, Weather by CustomWeather, © 2015

Note: Actual official high and low records may vary slightly from our data, if they occured in-between our weather recording intervals... More about our weather records

Advertising

Provo weather history for previous 24 hours

 ConditionsComfort  
Time TempWeatherWind HumidityBarometerVisibility
3:35 AM
Mon, Mar 30
41 °FClear.No wind57%30.21 "Hg10 mi
3:15 AM43 °FClear.No wind49%30.21 "Hg10 mi
2:55 AM43 °FClear.No wind49%30.21 "Hg10 mi
2:35 AM41 °FClear.No wind53%30.21 "Hg10 mi
2:15 AM43 °FClear.3 mph53%30.21 "Hg10 mi
1:55 AM43 °FClear.3 mph53%30.21 "Hg10 mi
1:35 AM41 °FClear.5 mph57%30.21 "Hg10 mi
1:15 AM43 °FClear.6 mph57%30.21 "Hg10 mi
12:55 AM45 °FClear.No wind53%30.21 "Hg10 mi
12:35 AM45 °FClear.3 mph57%30.21 "Hg10 mi
12:15 AM45 °FClear.3 mph57%30.21 "Hg10 mi
11:55 PM
Sun, Mar 29
43 °FClear.6 mph53%30.21 "Hg10 mi
11:35 PM45 °FClear.5 mph46%30.21 "Hg10 mi
11:15 PM48 °FClear.3 mph46%30.21 "Hg10 mi
10:55 PM50 °FClear.3 mph43%30.21 "Hg10 mi
10:35 PM50 °FClear.7 mph43%30.21 "Hg10 mi
10:15 PM52 °FClear.5 mph41%30.20 "Hg10 mi
9:55 PM54 °FClear.7 mph35%30.20 "Hg10 mi
9:35 PM54 °FClear.10 mph38%30.20 "Hg10 mi
9:15 PM55 °FClear.12 mph36%30.20 "Hg10 mi
8:59 PM57 °FPassing clouds.12 mph41%30.18 "Hg15 mi
7:59 PM57 °FPassing clouds.12 mph36%30.19 "Hg15 mi
6:59 PM64 °FSunny.6 mph22%30.18 "Hg15 mi
4:59 PM64 °FSunny.5 mph22%30.19 "Hg15 mi
3:47 PM63 °FSunny.5 mph24%30.22 "Hg15 mi
2:59 PM61 °FSunny.5 mph29%30.24 "Hg15 mi
1:52 PM61 °FPassing clouds.6 mph27%30.28 "Hg15 mi
12:57 PM55 °FSunny.7 mph28%30.31 "Hg15 mi
11:59 AM54 °FSunny.6 mph28%30.34 "Hg15 mi
10:47 AM52 °FSunny.6 mph44%30.35 "Hg15 mi
9:59 AM52 °FPassing clouds.No wind38%30.35 "Hg15 mi
8:59 AM46 °FPassing clouds.8 mph46%30.35 "Hg15 mi
7:53 AM37 °FClear.6 mph65%30.33 "Hg15 mi
6:52 AM43 °FClear.5 mph53%30.31 "Hg15 mi
6:35 AM45 °FClear.5 mph53%30.31 "Hg10 mi
6:15 AM46 °FClear.9 mph50%30.30 "Hg10 mi
5:55 AM46 °FClear.13 mph53%30.29 "Hg10 mi
5:35 AM41 °FClear.3 mph57%30.29 "Hg10 mi
5:15 AM39 °FClear.No wind61%30.28 "Hg10 mi
4:55 AM43 °FClear.No wind42%30.28 "Hg10 mi
4:35 AM41 °FClear.7 mph45%30.27 "Hg10 mi
4:15 AM43 °FClear.6 mph46%30.27 "Hg10 mi
Weather by CustomWeather, © 2015

See weather overviewHow to use our weather pages